Location: Unspecified
(0.0000°N, 0.0000°E)
Time: 17:31:50
(UTC+00:00)

Courier 1B Rocket - Pass Details

Date: 18 April 2021
Orbit: 920 x 1202 km, 28.3° (Epoch: 14 May)

Event Time Altitude Azimuth Distance (km) Brightness Sun altitude
Rises 18:56:57 0° 284° (WNW) 3,626 10.0 -14.1°
Reaches altitude 10° 19:01:00 10° 308° (NW) 2,729 8.4 -15.1°
Maximum altitude 19:04:19 14° 339° (NNW) 2,481 7.5 -16.0°
Drops below altitude 10° 19:07:45 10° 9° (N) 2,827 7.5 -16.8°
Sets 19:12:07 0° 33° (NNE) 3,849 7.9 -17.9°
